Regional Weather Roundup
Issued by NWS Jackson, KY

Home | Current Version | Previous Version | Text Only | Print | Product List | Glossary Off
Versions: 1 2 3 4 5 6 7 8 9 10 11 12 13 14 15 16 17 18 19 20 21 22 23 24 25 26 27 28 29 30 31 32 33 34 35 36 37 38 39 40 41 42 43 44 45 46 47 48 49 50

000
ASUS43 KJKL 032310
RWRJKL

EAST KENTUCKY HOURLY WEATHER ROUNDUP
NATIONAL WEATHER SERVICE JACKSON KY
700 PM EDT SUN MAY 03 2015

NOTE: "FAIR" INDICATES FEW OR NO CLOUDS BELOW 12,000 FEET WITH
NO SIGNIFICANT WEATHER AND/OR OBSTRUCTIONS TO VISIBILITY.

* THESE REPORTS ARE NOT UNDER NWS QUALITY CONTROL AND MAY NOT
  REPORT WEATHER SUCH AS PRECIPITATION AND FOG.

KYZ079-080-083-085-087-088-110-112-115-119-120-040000
...EASTERN KENTUCKY...

CITY           SKY/WX    TMP DP  RH WIND       PRES   REMARKS
JACKSON        MOSUNNY   76  41  28 CALM      30.11S
LONDON         PTSUNNY   77  41  27 S5        30.10S
SOMERSET*      MOSUNNY   75  45  33 NW5       30.10S
MONTICELLO*    SUNNY     78  47  33 W8        30.11S
MIDDLESBORO*   MOSUNNY   76  44  31 S6        30.11S
HARLAN APT*    CLEAR     77  34  20 CALM      30.12S
HAZARD APT*    CLEAR     75  41  29 CALM      30.11S
BLACK MTN*       N/A     63  36  36 S6          N/A
PIKEVILLE APT* SUNNY     73  43  33 N5        30.11F
BIG SANDY*     CLEAR     76  45  32 SE3       30.11S
MOREHEAD APT*  CLEAR     75  46  35 VRB3      30.12S
$$

KYZ035-036-041-042-044-050-067-078-099-040000
...CENTRAL KENTUCKY...

CITY           SKY/WX    TMP DP  RH WIND       PRES   REMARKS
MT STERLING*   SUNNY     75  46  35 W5        30.11F
FLEMING/MASON* SUNNY     73  48  40 SW6       30.10S
DANVILLE*      SUNNY     77  46  33 SW6       30.10S
RICHMOND*      SUNNY     75  43  31 W3        30.09S
LEXINGTON      SUNNY     75  50  41 SW9       30.09S
FRANKFORT      SUNNY     75  42  30 SW12      30.07S
$$

KYZ091>093-OHZ055-061-077-WVZ005-015-034-035-042-040000
...SOUTHERN OHIO/WEST VIRGINIA...

CITY           SKY/WX    TMP DP  RH WIND       PRES   REMARKS
COVINGTON      MOSUNNY   74  47  38 S8        30.07S
COLUMBUS       MOSUNNY   75  43  31 SW9       30.07S
DAYTON         MOSUNNY   75  47  36 SW13      30.08R
WILMINGTON     SUNNY     73  42  32 S9        30.08R
HUNTINGTON     SUNNY     75  41  29 S5        30.09S
CHARLESTON     MOSUNNY   78  34  20 SW6       30.10S
PINEVILLE*     PTSUNNY   75  37  25 MISG      30.18S
BECKLEY        MOSUNNY   71  29  21 CALM      30.16R
BLUEFIELD      MOSUNNY   73  31  21 W7        30.17S
$$

VAZ002-007-008-TNZ017-027-036-066-071-040000
...SOUTHWEST VIRGINIA/EAST TENNESSEE...

CITY           SKY/WX    TMP DP  RH WIND       PRES   REMARKS
WISE*          SUNNY     70  34  26 SW5       30.17S
JONESVILLE*    CLEAR     75  41  29 W3        30.14S
ABINGDON*      MOSUNNY   74  34  23 NW6       30.15S
BRISTOL        MOSUNNY   76  38  25 NW6       30.13R
KNOXVILLE      MOSUNNY   76  45  33 W9        30.11R
OAK RIDGE      SUNNY     77  44  30 VRB5      30.12S
CROSSVILLE     PTSUNNY   73  45  36 S6        30.14R
NASHVILLE      MOSUNNY   78  48  34 SW6       30.08S
$$

...KEY TO REMARKS...
VSB - VISIBILITY IN MILES
WCI - WIND CHILL INDEX
HX  - HEAT INDEX

$$



USA.gov is the U.S. government's official web portal to all federal, state and local government web resources and services.